Time,TemperatureF,DewpointF,PressureIn,WindDirection,WindDirectionDegrees,WindSpeedMPH,WindSpeedGustMPH,Humidity,HourlyPrecipIn,Conditions,Clouds,dailyrainin,SoftwareType,DateUTC
2013-11-09 00:21:00,45.0,44.0,30.12,East,86,5.0,8.0,97,0.00,,,0.19,,2013-11-09 08:21:00,
2013-11-09 00:42:00,45.0,44.0,30.12,ENE,71,4.0,7.0,97,0.00,,,0.19,,2013-11-09 08:42:00,
2013-11-09 00:52:00,44.0,43.0,30.12,ENE,73,6.0,10.0,97,0.00,,,0.19,,2013-11-09 08:52:00,
2013-11-09 01:21:00,44.0,43.0,30.11,NE,55,4.0,7.0,97,0.00,,,0.16,,2013-11-09 09:21:00,
2013-11-09 01:53:00,44.0,43.0,30.11,ENE,70,4.0,8.0,97,0.00,,,0.16,,2013-11-09 09:53:00,
2013-11-09 02:12:00,44.0,43.0,30.11,NE,53,5.0,7.0,97,0.00,,,0.15,,2013-11-09 10:12:00,
2013-11-09 02:23:00,44.0,43.0,30.11,NE,44,5.0,8.0,97,0.00,,,0.15,,2013-11-09 10:23:00,
2013-11-09 02:52:00,44.0,43.0,30.12,NE,46,6.0,7.0,97,0.00,,,0.15,,2013-11-09 10:52:00,
2013-11-09 03:22:00,44.0,43.0,30.12,NNE,30,4.0,7.0,97,0.00,,,0.15,,2013-11-09 11:22:00,
2013-11-09 03:42:00,44.0,43.0,30.12,NE,36,4.0,8.0,97,0.00,,,0.15,,2013-11-09 11:42:00,
2013-11-09 03:52:00,44.0,43.0,30.11,NE,48,5.0,11.0,96,0.00,,,0.15,,2013-11-09 11:52:00,
2013-11-09 04:11:00,44.0,43.0,30.11,NE,40,3.0,10.0,96,0.00,,,0.14,,2013-11-09 12:11:00,
2013-11-09 04:21:00,44.0,43.0,30.11,NE,41,5.0,11.0,96,0.00,,,0.14,,2013-11-09 12:21:00,
2013-11-09 04:42:00,44.0,43.0,30.11,NE,55,5.0,7.0,95,0.00,,,0.14,,2013-11-09 12:42:00,
2013-11-09 04:52:00,44.0,43.0,30.11,NNE,29,4.0,8.0,95,0.00,,,0.14,,2013-11-09 12:52:00,
2013-11-09 05:11:00,44.0,43.0,30.11,NE,50,4.0,7.0,95,0.00,,,0.13,,2013-11-09 13:11:00,
2013-11-09 05:21:00,44.0,42.0,30.11,NNE,26,5.0,8.0,94,0.00,,,0.13,,2013-11-09 13:21:00,
2013-11-09 05:41:00,43.0,41.0,30.11,NE,43,4.0,8.0,94,0.00,,,0.13,,2013-11-09 13:41:00,
2013-11-09 05:52:00,43.0,41.0,30.10,ENE,63,5.0,7.0,93,0.00,,,0.13,,2013-11-09 13:52:00,
2013-11-09 06:22:00,43.0,41.0,30.10,NE,49,5.0,11.0,92,0.00,,,0.12,,2013-11-09 14:22:00,
2013-11-09 06:42:00,42.0,40.0,30.10,ENE,78,6.0,11.0,92,0.00,,,0.12,,2013-11-09 14:42:00,
2013-11-09 06:52:00,43.0,41.0,30.10,ENE,67,6.0,12.0,92,0.00,,,0.12,,2013-11-09 14:52:00,
2013-11-09 07:11:00,42.0,40.0,30.10,NE,42,5.0,8.0,92,0.00,,,0.10,,2013-11-09 15:11:00,
2013-11-09 07:21:00,42.0,40.0,30.09,NE,36,5.0,11.0,93,0.00,,,0.10,,2013-11-09 15:21:00,
2013-11-09 07:53:00,41.0,39.0,30.09,NE,51,6.0,10.0,93,0.00,,,0.10,,2013-11-09 15:53:00,
2013-11-09 08:23:00,41.0,39.0,30.10,NE,40,2.0,8.0,93,0.00,,,0.10,,2013-11-09 16:23:00,
2013-11-09 08:43:00,42.0,40.0,30.10,NE,36,4.0,8.0,94,0.00,,,0.10,,2013-11-09 16:43:00,
2013-11-09 08:53:00,42.0,40.0,30.10,NE,46,5.0,8.0,93,0.00,,,0.10,,2013-11-09 16:53:00,
2013-11-09 09:12:00,43.0,41.0,30.09,ENE,71,5.0,8.0,92,0.00,,,0.10,,2013-11-09 17:12:00,
2013-11-09 09:23:00,44.0,41.0,30.09,NE,37,5.0,10.0,90,0.00,,,0.10,,2013-11-09 17:23:00,
2013-11-09 09:43:00,44.0,41.0,30.08,ENE,69,6.0,11.0,88,0.00,,,0.10,,2013-11-09 17:43:00,
2013-11-09 09:52:00,44.0,40.0,30.09,ENE,69,5.0,13.0,86,0.00,,,0.10,,2013-11-09 17:52:00,
2013-11-09 10:12:00,44.0,40.0,30.09,NE,44,4.0,13.0,86,0.00,,,0.10,,2013-11-09 18:12:00,
2013-11-09 10:23:00,44.0,40.0,30.09,NE,55,5.0,11.0,87,0.00,,,0.10,,2013-11-09 18:23:00,
2013-11-09 10:42:00,45.0,41.0,30.09,NE,49,4.0,10.0,87,0.00,,,0.10,,2013-11-09 18:42:00,
2013-11-09 10:52:00,45.0,41.0,30.09,NE,53,5.0,10.0,86,0.00,,,0.10,,2013-11-09 18:52:00,
2013-11-09 11:22:00,46.0,41.0,30.09,ENE,72,5.0,10.0,84,0.00,,,0.10,,2013-11-09 19:22:00,
2013-11-09 11:42:00,46.0,42.0,30.09,NE,54,4.0,8.0,85,0.00,,,0.10,,2013-11-09 19:42:00,
2013-11-09 11:52:00,46.0,42.0,30.08,NE,52,2.0,8.0,85,0.00,,,0.10,,2013-11-09 19:52:00,
2013-11-09 12:22:00,47.0,42.0,30.07,NE,54,4.0,10.0,83,0.00,,,0.10,,2013-11-09 20:22:00,
2013-11-09 12:42:00,47.0,42.0,30.08,East,79,4.0,7.0,84,0.00,,,0.10,,2013-11-09 20:42:00,
2013-11-09 12:52:00,47.0,41.0,30.08,NE,54,3.0,10.0,81,0.00,,,0.10,,2013-11-09 20:52:00,
2013-11-09 13:22:00,48.0,42.0,30.07,NE,52,4.0,8.0,80,0.00,,,0.10,,2013-11-09 21:22:00,
2013-11-09 13:44:00,48.0,42.0,30.07,East,96,6.0,8.0,80,0.00,,,0.10,,2013-11-09 21:44:00,
2013-11-09 13:54:00,48.0,42.0,30.07,NE,45,4.0,7.0,79,0.00,,,0.10,,2013-11-09 21:54:00,
2013-11-09 14:24:00,48.0,43.0,30.06,ENE,78,2.0,5.0,82,0.00,,,0.10,,2013-11-09 22:24:00,
2013-11-09 14:43:00,49.0,44.0,30.06,NNE,33,3.0,7.0,84,0.00,,,0.10,,2013-11-09 22:43:00,
2013-11-09 14:54:00,48.0,41.0,30.07,East,84,2.0,5.0,78,0.00,,,0.10,,2013-11-09 22:54:00,
2013-11-09 15:22:00,49.0,43.0,30.07,ENE,65,2.0,4.0,80,0.00,,,0.10,,2013-11-09 23:22:00,
2013-11-09 15:53:00,48.0,44.0,30.07,NE,40,3.0,4.0,85,0.00,,,0.10,,2013-11-09 23:53:00,
2013-11-09 16:12:00,48.0,44.0,30.06,NE,40,3.0,5.0,86,0.00,,,0.10,,2013-11-10 00:12:00,
2013-11-09 16:21:00,48.0,44.0,30.07,NE,37,1.0,6.0,87,0.00,,,0.10,,2013-11-10 00:21:00,
2013-11-09 16:42:00,48.0,45.0,30.06,NNE,23,6.0,7.0,88,0.00,,,0.10,,2013-11-10 00:42:00,
2013-11-09 16:52:00,47.0,44.0,30.06,NNE,27,1.0,6.0,89,0.00,,,0.10,,2013-11-10 00:52:00,
2013-11-09 17:12:00,47.0,44.0,30.07,NNE,27,3.0,4.0,89,0.00,,,0.10,,2013-11-10 01:12:00,
2013-11-09 17:21:00,47.0,44.0,30.08,NNE,27,4.0,6.0,89,0.00,,,0.10,,2013-11-10 01:21:00,
2013-11-09 17:42:00,47.0,44.0,30.08,NNE,27,0.0,0.0,89,0.00,,,0.10,,2013-11-10 01:42:00,
2013-11-09 17:52:00,47.0,44.0,30.08,NNE,27,0.0,0.0,90,0.00,,,0.10,,2013-11-10 01:52:00,
2013-11-09 18:12:00,47.0,44.0,30.08,NNE,27,0.0,0.0,90,0.00,,,0.10,,2013-11-10 02:12:00,
2013-11-09 18:22:00,46.0,44.0,30.08,NNE,27,0.0,0.0,91,0.00,,,0.10,,2013-11-10 02:22:00,
2013-11-09 18:42:00,46.0,44.0,30.09,NNE,27,0.0,0.0,91,0.00,,,0.10,,2013-11-10 02:42:00,
2013-11-09 18:52:00,46.0,44.0,30.08,NNE,27,0.0,0.0,91,0.00,,,0.10,,2013-11-10 02:52:00,
2013-11-09 19:21:00,46.0,44.0,30.08,NNE,27,0.0,0.0,92,0.00,,,0.10,,2013-11-10 03:21:00,
2013-11-09 19:44:00,46.0,44.0,30.09,NNE,27,0.0,0.0,91,0.00,,,0.10,,2013-11-10 03:44:00,
2013-11-09 19:54:00,46.0,44.0,30.09,NNE,27,0.0,0.0,92,0.00,,,0.10,,2013-11-10 03:54:00,
2013-11-09 20:02:00,-999.0,-99.9,30.09,NNE,27,0.0,0.0,-999,-99.99,,,-99.99,,2013-11-10 04:02:00,
2013-11-09 20:23:00,46.0,44.0,30.09,NNE,28,0.0,0.0,92,0.00,,,0.10,,2013-11-10 04:23:00,
2013-11-09 20:52:00,46.0,44.0,30.09,ENE,65,0.0,0.0,91,0.00,,,0.10,,2013-11-10 04:52:00,
2013-11-09 21:22:00,45.0,42.0,30.09,NE,38,3.0,5.0,90,0.00,,,0.08,,2013-11-10 05:22:00,
2013-11-09 21:54:00,45.0,43.0,30.09,NE,47,3.0,8.0,91,0.00,,,0.08,,2013-11-10 05:54:00,
2013-11-09 22:22:00,46.0,43.0,30.09,NE,52,4.0,7.0,90,0.00,,,0.06,,2013-11-10 06:22:00,
2013-11-09 22:52:00,46.0,43.0,30.10,NE,56,4.0,8.0,90,0.00,,,0.06,,2013-11-10 06:52:00,
2013-11-09 23:12:00,46.0,43.0,30.09,ENE,63,4.0,6.0,90,0.00,,,0.00,,2013-11-10 07:12:00,
2013-11-09 23:22:00,46.0,44.0,30.10,ENE,75,3.0,6.0,91,0.00,,,0.00,,2013-11-10 07:22:00,
2013-11-09 23:42:00,45.0,43.0,30.09,ENE,58,4.0,7.0,92,0.00,,,0.00,,2013-11-10 07:42:00,
2013-11-09 23:52:00,45.0,43.0,30.09,NE,40,4.0,6.0,92,0.00,,,0.00,,2013-11-10 07:52:00,